Simultaneous Nadir Overpasses (SNOs) Predictions

Prediction of SNOs between LANDSAT-8 and METOP-A Satellite Orbit:

Table of predicted SNOs for the next 14.0 days since TLE Epoch: 7/26/2018
Index Date (LANDSAT-8) Time (LANDSAT-8) Lat,Lon (LANDSAT-8) SZA (LANDSAT-8 ) Date (METOP-A) Time (METOP-A) Lat,Lon (METOP-A) SZA (METOP-A ) Distance(km) Time Diff (sec)
1 07/28/2018 01:07:16 -81.38, 27.75 115.25 07/28/2018 01:06:44 -81.38, 27.72 115.27 0.56 32
2 07/28/2018 01:56:42 81.39,-164.46 64.78 07/28/2018 01:57:23 81.39,-164.29 64.82 2.88 41
3 07/30/2018 20:41:32 -81.39, 94.24 114.58 07/30/2018 20:41:00 -81.39, 94.43 114.57 3.16 32
4 07/30/2018 21:30:58 81.39, -98.00 65.45 07/30/2018 21:31:40 81.39, -98.02 65.47 0.62 42
5 08/02/2018 16:15:48 -81.39, 160.70 113.87 08/02/2018 16:15:17 -81.38, 160.73 113.88 0.58 31
6 08/02/2018 17:05:13 81.39, -31.56 66.16 08/02/2018 17:05:55 81.39, -31.38 66.20 3.10 42
7 08/05/2018 11:50:03 -81.39,-132.86 113.12 08/05/2018 11:49:33 -81.38,-132.99 113.15 2.29 30
8 08/05/2018 12:39:29 81.39, 34.85 66.91 08/05/2018 12:40:12 81.39, 34.86 66.93 0.27 43
9 08/08/2018 07:24:19 -81.39, -66.45 112.33 08/08/2018 07:23:49 -81.39, -66.33 112.33 1.96 30




NCC Satellite Simultaneous Nadir Overpasses (SNOs) Prediction Service
